Location: Boiro
(42.6475°N, 8.8834°W)
Time: 06:31:57
(UTC+01:00)

Envisat - Pass Details

Date: 23 October 2021
Orbit: 764 x 766 km, 98.2° (Epoch: 04 December)

Event Time Altitude Azimuth Distance (km) Brightness Sun altitude
Rises 06:56:05 0° 23° (NNE) 3,241 6.6 -23.1°
Reaches altitude 10° 06:58:40 10° 34° (NNE) 2,310 6.0 -22.6°
Maximum altitude 07:03:09 31° 95° (E) 1,332 4.9 -21.8°
Drops below altitude 10° 07:07:35 10° 157° (SSE) 2,294 5.7 -21.0°
Sets 07:10:08 0° 168° (SSE) 3,215 6.3 -20.5°
